STARLINK-11299 [DTC]

Last updated on Mon Oct 14 2024 00:02:03 GMT+0000 (Coordinated Universal Time)

1 61058U 24164J 24287.46254648 .00001584 00000+0 17929-4 0 9998 2 61058 53.1568 316.6786 0001310 64.8847 295.2307 15.69711920 4967
UTC large
Height (km)
Speed (km/s)
/
Latitude / Longitude
Inclination (degrees)
Orbital Period (minutes)
Azimuth
Elevation
Range (km)
Doppler Factor

Next 0 passes for location: London (51.5072 / 0.1276)

Sorry there are no passes over London.